Weather History for Osceola, WI

Change the Weather History Date:

Tuesday, March 19, 2013

  Actual Average (KMSP) Record (KMSP)
Temperature  
Mean Temperature 16 °F 34 °F  
Max Temperature 24 °F 43 °F 79 °F (2012)
Min Temperature 8 °F 25 °F -15 °F (1875)
Degree Days  
Heating Degree Days 49 31  
Month to date heating degree days 664  
Since 1 July heating degree days 6454  
Cooling Degree Days 0 0  
Month to date cooling degree days 0  
Year to date cooling degree days 0  
Moisture  
Dew Point 3 °F    
Average Humidity 60    
Maximum Humidity 79    
Minimum Humidity 43    
Precipitation  
Precipitation 0.00 in 0.06 in 1.09 in (1897)
Month to date precipitation 1.06  
Year to date precipitation 2.73  
Snow  
Snow 0.00 in 0.30 in 8.80 in (1943)
Month to date snowfall 7.4  
Since 1 July snowfall 49.1  
Snow Depth -    
Sea Level Pressure  
Sea Level Pressure 30.00 in    
Wind  
Wind Speed 15 mph (WNW)    
Max Wind Speed 21 mph    
Max Gust Speed 29 mph    
Visibility 10 miles    
Events      
T = Trace of Precipitation, MM = Missing Value Source: NWS Daily Summary

Daily Weather History Graph

Daily Weather History Graph

Search for Another Location

Airport:

Trip Planner

Search our weather history database for the weather conditions in past years. The results will help you decide how hot, cold, wet, or windy it might be!

Date:

Astronomy

Mar. 19, 2013 Rise Set
Actual Time 7:15 AM CDT 7:22 PM CDT
Civil Twilight 6:45 AM CDT 7:51 PM CDT
Nautical Twilight 6:11 AM CDT 8:26 PM CDT
Astronomical Twilight 5:36 AM CDT 9:01 PM CDT
Moon 11:50 AM CDT (3/19) 2:25 AM CDT (3/19)
Length of Visible Light 13h 05m
Length of Day
12h 07m
Waxing Crescent, 50% of the Moon is Illuminated
Mar 19
Waxing Crescent
Mar 19
First Quarter
Mar 27
Full
Apr 2
Last Quarter
Apr 10
New

Hourly Weather History & Observations

Time (CDT) Temp. Windchill Dew Point Humidity Pressure Visibility Wind Dir Wind Speed Gust Speed Precip Events Conditions
12:15 AM 14.0 °F -1.4 °F 6.8 °F 73% 29.78 in 10.0 mi West 15.0 mph 26.5 mph N/A   Overcast
12:35 AM 14.0 °F -1.4 °F 6.8 °F 73% 29.78 in 10.0 mi West 15.0 mph 26.5 mph N/A   Overcast
12:55 AM 12.2 °F -3.7 °F 6.8 °F 79% 29.79 in 10.0 mi West 15.0 mph 25.3 mph N/A   Overcast
1:15 AM 12.2 °F -3.1 °F 5.0 °F 73% 29.79 in 10.0 mi WNW 13.8 mph 19.6 mph N/A   Overcast
1:55 AM 12.2 °F -2.5 °F 5.0 °F 73% 29.80 in 10.0 mi WNW 12.7 mph 21.9 mph N/A   Scattered Clouds
2:15 AM 12.2 °F -3.1 °F 5.0 °F 73% 29.81 in 10.0 mi West 13.8 mph 21.9 mph N/A   Clear
2:55 AM 10.4 °F -6.6 °F 5.0 °F 79% 29.82 in 10.0 mi West 16.1 mph 23.0 mph N/A   Mostly Cloudy
3:15 AM 10.4 °F -6.6 °F 5.0 °F 79% 29.82 in 10.0 mi West 16.1 mph 20.7 mph N/A   Mostly Cloudy
3:35 AM 10.4 °F -6.0 °F 5.0 °F 79% 29.83 in 10.0 mi West 15.0 mph 20.7 mph N/A   Scattered Clouds
3:55 AM 10.4 °F -5.4 °F 3.2 °F 73% 29.83 in 10.0 mi WNW 13.8 mph 20.7 mph N/A   Scattered Clouds
4:15 AM 10.4 °F -5.4 °F 3.2 °F 73% 29.84 in 10.0 mi WNW 13.8 mph 21.9 mph N/A   Mostly Cloudy
4:35 AM 10.4 °F -4.1 °F 3.2 °F 73% 29.84 in 10.0 mi WNW 11.5 mph 18.4 mph N/A   Mostly Cloudy
4:55 AM 10.4 °F -4.8 °F 3.2 °F 73% 29.85 in 10.0 mi West 12.7 mph 20.7 mph N/A   Scattered Clouds
5:15 AM 10.4 °F -3.3 °F 3.2 °F 73% 29.86 in 10.0 mi WNW 10.4 mph 17.3 mph N/A   Clear
5:35 AM 10.4 °F -4.1 °F 3.2 °F 73% 29.87 in 10.0 mi West 11.5 mph 18.4 mph N/A   Clear
5:55 AM 8.6 °F -7.7 °F 3.2 °F 79% 29.87 in 10.0 mi West 13.8 mph 18.4 mph N/A   Clear
6:15 AM 8.6 °F -8.9 °F 3.2 °F 79% 29.88 in 10.0 mi West 16.1 mph 24.2 mph N/A   Clear
6:35 AM 8.6 °F -6.3 °F 3.2 °F 79% 29.89 in 10.0 mi West 11.5 mph 20.7 mph N/A   Clear
6:55 AM 8.6 °F -8.9 °F 1.4 °F 73% 29.91 in 10.0 mi WNW 16.1 mph 24.2 mph N/A   Clear
7:15 AM 8.6 °F -9.5 °F 1.4 °F 73% 29.92 in 10.0 mi West 17.3 mph 20.7 mph N/A   Clear
7:35 AM 8.6 °F -8.3 °F 1.4 °F 73% 29.93 in 10.0 mi West 15.0 mph 21.9 mph N/A   Clear
7:55 AM 8.6 °F -8.9 °F 1.4 °F 73% 29.95 in 10.0 mi West 16.1 mph 21.9 mph N/A   Clear
8:15 AM 8.6 °F -8.3 °F 1.4 °F 73% 29.96 in 10.0 mi West 15.0 mph 23.0 mph N/A   Clear
8:35 AM 10.4 °F -6.0 °F 1.4 °F 67% 29.96 in 7.0 mi West 15.0 mph 21.9 mph N/A   Clear
8:55 AM 10.4 °F -7.7 °F 1.4 °F 67% 29.97 in 10.0 mi WNW 18.4 mph 24.2 mph N/A   Clear
9:15 AM 10.4 °F -4.8 °F 1.4 °F 67% 29.98 in 10.0 mi WNW 12.7 mph 26.5 mph N/A   Clear
9:35 AM 12.2 °F -5.8 °F 1.4 °F 62% 29.99 in 10.0 mi WNW 19.6 mph 25.3 mph N/A   Clear
9:55 AM 12.2 °F -5.3 °F 3.2 °F 67% 29.99 in 7.0 mi WNW 18.4 mph 27.6 mph N/A   Clear
10:15 AM 14.0 °F -2.0 °F 3.2 °F 62% 30.00 in 10.0 mi West 16.1 mph 27.6 mph N/A   Clear
10:35 AM 14.0 °F -2.5 °F 3.2 °F 62% 30.00 in 10.0 mi West 17.3 mph 20.7 mph N/A   Clear
10:55 AM 15.8 °F 1.4 °F 3.2 °F 58% 30.01 in 10.0 mi WNW 13.8 mph 23.0 mph N/A   Clear
11:15 AM 17.6 °F 3.7 °F 3.2 °F 53% 30.02 in 7.0 mi West 13.8 mph 19.6 mph N/A   Clear
11:35 AM 17.6 °F 4.3 °F 3.2 °F 53% 30.02 in 10.0 mi West 12.7 mph 23.0 mph N/A   Clear
11:55 AM 17.6 °F 1.7 °F 3.2 °F 53% 30.02 in 10.0 mi West 18.4 mph 23.0 mph N/A   Clear
12:15 PM 19.4 °F 4.1 °F 3.2 °F 49% 30.03 in 7.0 mi West 18.4 mph 23.0 mph N/A   Clear
12:35 PM 19.4 °F 3.2 °F 5.0 °F 54% 30.03 in 7.0 mi West 20.7 mph 25.3 mph N/A   Clear
12:55 PM 21.2 °F 8.3 °F 5.0 °F 50% 30.03 in 10.0 mi West 13.8 mph 23.0 mph N/A   Clear
1:15 PM 21.2 °F 7.8 °F 5.0 °F 50% 30.04 in 7.0 mi West 15.0 mph 25.3 mph N/A   Clear
1:35 PM 21.2 °F 7.8 °F 5.0 °F 50% 30.04 in 10.0 mi WNW 15.0 mph 23.0 mph N/A   Clear
1:55 PM 21.2 °F 8.3 °F 5.0 °F 50% 30.04 in 10.0 mi West 13.8 mph - N/A   Clear
2:15 PM 23.0 °F 9.6 °F 5.0 °F 46% 30.04 in 10.0 mi West 16.1 mph - N/A   Clear
2:35 PM 23.0 °F 10.6 °F 5.0 °F 46% 30.04 in 10.0 mi West 13.8 mph 23.0 mph N/A   Clear
2:55 PM 23.0 °F 10.6 °F 5.0 °F 46% 30.04 in 10.0 mi West 13.8 mph - N/A   Clear
3:15 PM 23.0 °F 8.7 °F 5.0 °F 46% 30.04 in 10.0 mi WNW 18.4 mph 24.2 mph N/A   Clear
3:35 PM 24.8 °F 11.9 °F 5.0 °F 43% 30.04 in 10.0 mi WNW 16.1 mph 26.5 mph N/A   Clear
3:55 PM 23.0 °F 9.2 °F 6.8 °F 50% 30.04 in 10.0 mi West 17.3 mph 23.0 mph N/A   Clear
4:15 PM 24.8 °F 11.1 °F 5.0 °F 43% 30.06 in 10.0 mi West 18.4 mph 25.3 mph N/A   Clear
4:35 PM 23.0 °F 8.7 °F 5.0 °F 46% 30.06 in 10.0 mi WNW 18.4 mph 28.8 mph N/A   Scattered Clouds
4:55 PM 23.0 °F 10.1 °F 5.0 °F 46% 30.06 in 10.0 mi WNW 15.0 mph 23.0 mph N/A   Mostly Cloudy
5:15 PM 23.0 °F 11.7 °F 5.0 °F 46% 30.07 in 10.0 mi WNW 11.5 mph 21.9 mph N/A   Overcast
5:35 PM 23.0 °F 9.6 °F 5.0 °F 46% 30.08 in 10.0 mi West 16.1 mph 21.9 mph N/A   Overcast
5:55 PM 21.2 °F 6.4 °F 5.0 °F 50% 30.09 in 10.0 mi West 18.4 mph 25.3 mph N/A   Overcast
6:15 PM 21.2 °F 8.3 °F 5.0 °F 50% 30.09 in 10.0 mi West 13.8 mph 18.4 mph N/A   Overcast
6:35 PM 21.2 °F 7.8 °F 5.0 °F 50% 30.10 in 10.0 mi West 15.0 mph 20.7 mph N/A   Mostly Cloudy
6:55 PM 19.4 °F 3.6 °F 5.0 °F 54% 30.11 in 10.0 mi West 19.6 mph 26.5 mph N/A   Scattered Clouds
7:15 PM 19.4 °F 6.0 °F 3.2 °F 49% 30.11 in 10.0 mi West 13.8 mph 23.0 mph N/A   Clear
7:35 PM 17.6 °F 2.7 °F 3.2 °F 53% 30.12 in 10.0 mi West 16.1 mph 23.0 mph N/A   Clear
7:55 PM 15.8 °F 2.1 °F 3.2 °F 58% 30.13 in 10.0 mi West 12.7 mph 19.6 mph N/A   Clear
8:15 PM 15.8 °F 0.9 °F 1.4 °F 53% 30.13 in 10.0 mi West 15.0 mph 21.9 mph N/A   Clear
8:35 PM 14.0 °F -0.2 °F 1.4 °F 57% 30.14 in 10.0 mi West 12.7 mph 18.4 mph N/A   Clear
8:55 PM 14.0 °F -0.8 °F 1.4 °F 57% 30.14 in 10.0 mi West 13.8 mph - N/A   Clear
9:15 PM 14.0 °F -0.8 °F -0.4 °F 53% 30.14 in 10.0 mi West 13.8 mph 21.9 mph N/A   Clear
9:35 PM 14.0 °F -0.2 °F -0.4 °F 53% 30.15 in 10.0 mi West 12.7 mph 19.6 mph N/A   Clear
9:55 PM 12.2 °F -3.7 °F -0.4 °F 57% 30.15 in 10.0 mi West 15.0 mph 19.6 mph N/A   Clear
10:15 PM 12.2 °F -2.5 °F -0.4 °F 57% 30.15 in 10.0 mi West 12.7 mph 17.3 mph N/A   Clear
10:35 PM 12.2 °F -1.8 °F -0.4 °F 57% 30.15 in 10.0 mi WNW 11.5 mph 16.1 mph N/A   Clear
10:55 PM 10.4 °F -4.1 °F -2.2 °F 57% 30.15 in 10.0 mi West 11.5 mph 16.1 mph N/A   Clear
11:15 PM 10.4 °F -5.4 °F -2.2 °F 57% 30.16 in 10.0 mi West 13.8 mph - N/A   Clear
11:55 PM 10.4 °F -4.8 °F -4.0 °F 52% 30.16 in 10.0 mi WNW 12.7 mph 16.1 mph N/A   Clear